Location: Howard City Library
(37.4684°N, 96.2639°W)
Time: 19:02:48
(UTC+00:00)

CSL-04 Rocket - Pass Details

Date: 18 February 2020
Orbit: 805 x 861 km, 99.0° (Epoch: 05 April)

Event Time Altitude Azimuth Distance (km) Brightness Sun altitude
Rises 01:22:56 0° 173° (S) 3,421 6.8 -15.8°
Reaches altitude 10° 01:25:19 10° 176° (S) 2,488 6.1 -16.3°
Maximum altitude 01:30:49 66° 258° (WSW) 937 4.1 -17.4°
Drops below altitude 10° 01:36:20 10° 340° (NNW) 2,490 6.4 -18.5°
Sets 01:38:43 0° 344° (NNW) 3,424 7.1 -19.0°
